�������l�o���
Date,Time,MP-1(��Sv/h),MP-2(��Sv/h),MP-3(��Sv/h),MP-4(��Sv/h),MP-5(��Sv/h),MP-6(��Sv/h),MP-7(��Sv/h),MP-8(��Sv/h),����,����(m/s),���J
2018/07/22,00:00,0.915,1.301,0.908,1.613,1.155,0.484,0.848,0.800,�k��,4.2,��
2018/07/22,00:10,0.916,1.301,0.906,1.615,1.155,0.483,0.847,0.801,���k��,3.5,��
2018/07/22,00:20,0.915,1.303,0.906,1.615,1.155,0.483,0.850,0.799,���k��,2.6,��
2018/07/22,00:30,0.914,1.302,0.905,1.612,1.157,0.482,0.849,0.800,���k��,2.9,��
2018/07/22,00:40,0.915,1.301,0.906,1.613,1.156,0.484,0.848,0.800,���k��,2.3,��
2018/07/22,00:50,0.914,1.301,0.903,1.614,1.154,0.483,0.848,0.799,��,2.2,��
2018/07/22,01:00,0.914,1.303,0.906,1.615,1.155,0.483,0.849,0.798,���k��,2.6,��
2018/07/22,01:10,0.916,1.303,0.906,1.613,1.156,0.483,0.847,0.799,���k��,3.6,��
2018/07/22,01:20,0.915,1.297,0.905,1.613,1.154,0.482,0.849,0.800,�k��,3.5,��
2018/07/22,01:30,0.914,1.299,0.905,1.610,1.155,0.482,0.848,0.801,���k��,2.9,��
2018/07/22,01:40,0.914,1.300,0.907,1.612,1.156,0.483,0.848,0.801,���k��,2.5,��
2018/07/22,01:50,0.915,1.300,0.906,1.613,1.153,0.483,0.849,0.800,�k��,3.0,��
2018/07/22,02:00,0.913,1.302,0.907,1.611,1.153,0.483,0.848,0.799,�k��,3.9,��
2018/07/22,02:10,0.913,1.302,0.904,1.613,1.156,0.483,0.847,0.799,���k��,3.9,��
2018/07/22,02:20,0.915,1.300,0.904,1.614,1.153,0.484,0.847,0.799,���k��,3.4,��
2018/07/22,02:30,0.912,1.301,0.908,1.612,1.154,0.481,0.847,0.801,���k��,3.8,��
2018/07/22,02:40,0.913,1.300,0.906,1.614,1.154,0.484,0.848,0.802,���k��,4.5,��
2018/07/22,02:50,0.914,1.301,0.904,1.613,1.158,0.483,0.846,0.799,��,4.2,��
2018/07/22,03:00,0.913,1.301,0.907,1.616,1.153,0.482,0.845,0.798,��,5.3,��
2018/07/22,03:10,0.914,1.301,0.905,1.611,1.153,0.483,0.848,0.798,���k��,4.3,��
2018/07/22,03:20,0.914,1.300,0.904,1.614,1.153,0.483,0.847,0.801,���k��,4.7,��
2018/07/22,03:30,0.913,1.299,0.905,1.614,1.155,0.481,0.847,0.797,���k��,4.5,��
2018/07/22,03:40,0.912,1.299,0.906,1.611,1.154,0.482,0.848,0.799,��,4.0,��
2018/07/22,03:50,0.913,1.299,0.906,1.611,1.152,0.483,0.848,0.797,��,4.4,��
2018/07/22,04:00,0.915,1.299,0.905,1.612,1.155,0.482,0.846,0.799,��,3.1,��
2018/07/22,04:10,0.913,1.300,0.904,1.615,1.152,0.483,0.847,0.799,��,1.5,��
2018/07/22,04:20,0.912,1.301,0.905,1.612,1.154,0.482,0.848,0.799,���k��,0.9,��
2018/07/22,04:30,0.912,1.299,0.905,1.611,1.152,0.481,0.847,0.799,��,2.0,��
2018/07/22,04:40,0.914,1.302,0.904,1.613,1.154,0.483,0.846,0.798,��,2.3,��
2018/07/22,04:50,0.911,1.300,0.903,1.613,1.153,0.481,0.848,0.798,��,2.2,��
2018/07/22,05:00,0.915,1.301,0.904,1.616,1.154,0.482,0.847,0.798,��,1.9,��
2018/07/22,05:10,0.915,1.300,0.905,1.613,1.151,0.484,0.849,0.799,��,2.0,��
2018/07/22,05:20,0.913,1.299,0.904,1.612,1.154,0.483,0.847,0.798,��,2.9,��
2018/07/22,05:30,0.913,1.300,0.905,1.612,1.154,0.481,0.846,0.798,��,2.5,��
2018/07/22,05:40,0.913,1.302,0.904,1.613,1.153,0.481,0.846,0.800,��,3.0,��
2018/07/22,05:50,0.911,1.299,0.905,1.614,1.154,0.483,0.847,0.799,��,4.4,��
2018/07/22,06:00,0.913,1.301,0.904,1.613,1.149,0.482,0.848,0.798,�쐼,3.3,��
2018/07/22,06:10,0.913,1.300,0.903,1.612,1.154,0.482,0.847,0.799,�쐼,2.5,��
2018/07/22,06:20,0.914,1.300,0.904,1.613,1.151,0.483,0.847,0.799,���쐼,2.2,��
2018/07/22,06:30,0.912,1.300,0.903,1.612,1.153,0.484,0.848,0.799,���쐼,1.7,��
2018/07/22,06:40,0.913,1.303,0.903,1.614,1.155,0.483,0.848,0.800,�쐼,1.7,��
2018/07/22,06:50,0.913,1.299,0.904,1.612,1.152,0.482,0.847,0.799,�쐼,1.4,��
2018/07/22,07:00,0.914,1.299,0.904,1.614,1.149,0.484,0.846,0.799,-,CALM,��
2018/07/22,07:10,0.913,1.299,0.904,1.611,1.153,0.483,0.846,0.800,-,CALM,��
2018/07/22,07:20,0.912,1.301,0.905,1.616,1.156,0.483,0.848,0.802,-,CALM,��
2018/07/22,07:30,0.913,1.300,0.906,1.615,1.154,0.484,0.849,0.799,-,CALM,��
2018/07/22,07:40,0.914,1.300,0.908,1.614,1.157,0.482,0.849,0.800,-,CALM,��
2018/07/22,07:50,0.913,1.301,0.907,1.613,1.156,0.482,0.849,0.799,��,0.8,��
2018/07/22,08:00,0.914,1.301,0.906,1.616,1.157,0.484,0.849,0.800,-,CALM,��
2018/07/22,08:10,0.914,1.301,0.905,1.615,1.157,0.483,0.849,0.800,���k��,0.6,��
2018/07/22,08:20,0.914,1.303,0.906,1.615,1.155,0.485,0.848,0.801,-,CALM,��
2018/07/22,08:30,0.915,1.300,0.907,1.614,1.157,0.484,0.847,0.801,-,CALM,��
2018/07/22,08:40,0.915,1.299,0.907,1.616,1.155,0.483,0.849,0.799,��쐼,0.8,��
2018/07/22,08:50,0.914,1.300,0.907,1.615,1.157,0.483,0.850,0.799,��,0.9,��
2018/07/22,09:00,0.913,1.302,0.908,1.609,1.157,0.483,0.849,0.798,��쓌,0.6,��
2018/07/22,09:10,0.911,1.303,0.907,1.613,1.157,0.483,0.850,0.798,�쓌,1.5,��
2018/07/22,09:20,0.913,1.300,0.906,1.614,1.154,0.485,0.848,0.798,��쓌,1.9,��
2018/07/22,09:30,0.914,1.303,0.905,1.616,1.154,0.483,0.849,0.799,�쓌,2.0,��
2018/07/22,09:40,0.915,1.302,0.905,1.617,1.155,0.483,0.850,0.799,�쓌,2.0,��
2018/07/22,09:50,0.916,1.300,0.907,1.614,1.156,0.482,0.850,0.799,�쓌,2.0,��
2018/07/22,10:00,0.917,1.301,0.907,1.616,1.154,0.483,0.851,0.799,��쓌,1.2,��
2018/07/22,10:10,0.917,1.302,0.905,1.618,1.157,0.484,0.850,0.800,��,1.7,��
2018/07/22,10:20,0.916,1.304,0.906,1.616,1.158,0.484,0.849,0.800,��,1.1,��
2018/07/22,10:30,0.915,1.300,0.909,1.618,1.156,0.484,0.848,0.799,��,2.0,��
2018/07/22,10:40,0.915,1.303,0.907,1.616,1.156,0.484,0.847,0.800,��쓌,3.1,��
2018/07/22,10:50,0.916,1.302,0.908,1.618,1.157,0.484,0.849,0.799,��쓌,2.2,��
2018/07/22,11:00,0.917,1.307,0.909,1.619,1.156,0.483,0.848,0.800,��쓌,1.7,��
2018/07/22,11:10,0.916,1.305,0.908,1.615,1.158,0.482,0.848,0.800,��,1.2,��
2018/07/22,11:20,0.915,1.306,0.907,1.612,1.160,0.483,0.848,0.797,��쓌,0.9,��
2018/07/22,11:30,0.918,1.307,0.909,1.615,1.159,0.485,0.848,0.799,��쓌,1.7,��
2018/07/22,11:40,0.917,1.310,0.908,1.616,1.159,0.485,0.846,0.799,��쓌,1.7,��
2018/07/22,11:50,0.918,1.309,0.910,1.617,1.161,0.486,0.849,0.797,��쐼,1.4,��
2018/07/22,12:00,0.918,1.304,0.911,1.620,1.164,0.486,0.848,0.801,��,3.2,��
2018/07/22,12:10,0.919,1.309,0.909,1.617,1.165,0.485,0.850,0.799,��쐼,3.5,��
2018/07/22,12:20,0.918,1.305,0.910,1.614,1.163,0.484,0.851,0.801,���쐼,2.9,��
2018/07/22,12:30,0.920,1.309,0.908,1.617,1.162,0.487,0.850,0.801,�쐼,2.0,��
2018/07/22,12:40,0.921,1.305,0.911,1.619,1.164,0.486,0.851,0.801,��,2.9,��
2018/07/22,12:50,0.919,1.310,0.912,1.619,1.164,0.486,0.850,0.801,���쐼,2.9,��
2018/07/22,13:00,0.919,1.310,0.911,1.618,1.162,0.487,0.853,0.802,��,4.4,��
2018/07/22,13:10,0.920,1.309,0.911,1.619,1.165,0.485,0.851,0.801,���쐼,5.4,��
2018/07/22,13:20,0.923,1.311,0.911,1.622,1.165,0.486,0.852,0.802,���쐼,5.2,��
2018/07/22,13:30,0.921,1.310,0.913,1.616,1.166,0.487,0.855,0.803,���쐼,6.4,��
2018/07/22,13:40,0.923,1.309,0.912,1.618,1.166,0.486,0.853,0.804,��,5.2,��
2018/07/22,13:50,0.924,1.312,0.914,1.623,1.168,0.487,0.853,0.804,���쐼,5.6,��
2018/07/22,14:00,0.923,1.311,0.914,1.625,1.167,0.487,0.856,0.804,���쐼,5.0,��
2018/07/22,14:10,0.924,1.312,0.913,1.625,1.166,0.487,0.855,0.804,��,5.0,��
2018/07/22,14:20,0.924,1.311,0.914,1.626,1.168,0.488,0.854,0.804,���쐼,5.8,��
2018/07/22,14:30,0.925,1.311,0.914,1.625,1.164,0.487,0.855,0.805,��,5.9,��
2018/07/22,14:40,0.926,1.308,0.910,1.626,1.163,0.485,0.853,0.805,���쐼,5.3,��
2018/07/22,14:50,0.927,-,0.912,1.628,1.166,0.486,0.854,0.805,��,5.5,��
2018/07/22,15:00,0.925,1.313,0.913,1.630,1.166,0.486,0.855,0.806,��,4.7,��
2018/07/22,15:10,0.926,1.309,0.911,1.626,1.165,0.486,0.854,0.804,��,6.1,��
2018/07/22,15:20,0.924,1.313,0.912,1.629,1.165,0.485,0.854,0.805,��,5.3,��
2018/07/22,15:30,0.927,1.311,0.913,1.627,1.166,0.487,0.854,0.804,��,4.3,��
2018/07/22,15:40,0.926,1.311,0.914,1.630,1.167,0.485,0.855,0.804,��,5.1,��
2018/07/22,15:50,0.926,1.312,0.912,1.629,1.166,0.485,0.854,0.805,��,3.9,��
2018/07/22,16:00,0.926,1.309,0.910,1.626,1.166,0.484,0.854,0.804,��,4.6,��
2018/07/22,16:10,0.924,1.311,0.912,1.624,1.165,0.486,0.855,0.803,��,4.5,��
2018/07/22,16:20,0.926,1.309,0.910,1.626,1.164,0.484,0.854,0.804,��,4.4,��
2018/07/22,16:30,0.925,1.308,0.913,1.628,1.166,0.486,0.855,0.804,��,4.6,��
2018/07/22,16:40,0.922,1.311,0.913,1.629,1.163,0.485,0.853,0.804,��,4.2,��
2018/07/22,16:50,0.925,1.310,0.913,1.628,1.164,0.485,0.854,0.804,��,4.9,��
2018/07/22,17:00,0.924,1.310,0.912,1.628,1.163,0.485,0.853,0.804,��,4.3,��
2018/07/22,17:10,0.921,1.311,0.909,1.628,1.163,0.481,0.852,0.804,��,4.7,��
2018/07/22,17:20,0.922,1.309,0.912,1.629,1.165,0.483,0.853,0.804,�k�k��,2.0,��
2018/07/22,17:30,0.923,1.307,0.910,1.628,1.163,0.483,0.853,0.802,�k�k��,1.1,��
2018/07/22,17:40,0.922,1.309,0.911,1.627,1.161,0.483,0.851,0.804,�k��,0.9,��
2018/07/22,17:50,0.921,1.309,0.909,1.622,1.162,0.485,0.853,0.804,���k��,2.0,��
2018/07/22,18:00,0.920,1.308,0.910,1.627,1.162,0.483,0.851,0.803,���k��,3.0,��
2018/07/22,18:10,0.920,1.308,0.909,1.628,1.161,0.483,0.852,0.803,���k��,2.2,��
2018/07/22,18:20,0.921,1.306,0.909,1.624,1.160,0.484,0.851,0.801,�k��,2.0,��
2018/07/22,18:30,0.920,1.306,0.909,1.624,1.159,0.482,0.852,0.805,�k��,2.0,��
2018/07/22,18:40,0.918,1.307,0.908,1.623,1.162,0.483,0.852,0.802,�k��,3.6,��
2018/07/22,18:50,0.918,1.309,0.909,1.625,1.161,0.483,0.852,0.803,�k��,3.4,��
2018/07/22,19:00,0.919,1.307,0.908,1.627,1.161,0.482,0.851,0.801,�k�k��,2.3,��
2018/07/22,19:10,0.918,1.307,0.908,1.624,1.161,0.481,0.852,0.801,�k�k��,4.8,��
2018/07/22,19:20,0.920,1.308,0.907,1.626,1.161,0.483,0.851,0.801,�k�k��,4.6,��
2018/07/22,19:30,0.919,1.308,0.909,1.628,1.162,0.482,0.850,0.799,�k�k��,4.0,��
2018/07/22,19:40,0.918,1.304,0.907,1.626,1.161,0.482,0.850,0.801,�k�k��,2.6,��
2018/07/22,19:50,0.919,1.307,0.907,1.624,1.161,0.481,0.851,0.799,�k��,2.3,��
2018/07/22,20:00,0.919,1.307,0.905,1.623,1.160,0.484,0.848,0.802,�k��,2.2,��
2018/07/22,20:10,0.919,1.306,0.909,1.624,1.159,0.482,0.848,0.799,�k�k��,2.0,��
2018/07/22,20:20,0.918,1.309,0.909,1.623,1.160,0.481,0.849,0.801,�k��,2.3,��
2018/07/22,20:30,0.918,1.303,0.907,1.623,1.158,0.483,0.848,0.800,���k��,0.6,��
2018/07/22,20:40,0.920,1.307,0.907,1.623,1.161,0.482,0.850,0.799,���쓌,0.8,��
2018/07/22,20:50,0.918,1.306,0.908,1.625,1.160,0.483,0.848,0.801,�쓌,0.9,��
2018/07/22,21:00,0.917,1.307,0.908,1.624,1.162,0.482,0.851,0.801,��,0.6,��
2018/07/22,21:10,0.921,1.307,0.907,1.623,1.161,0.482,0.850,0.801,�쐼,1.1,��
2018/07/22,21:20,0.917,1.305,0.907,1.623,1.159,0.483,0.850,0.799,��,2.0,��
2018/07/22,21:30,0.919,1.306,0.910,1.625,1.161,0.481,0.849,0.803,��,2.3,��
2018/07/22,21:40,0.918,1.306,0.910,1.626,1.161,0.483,0.850,0.801,���k��,2.0,��
2018/07/22,21:50,0.919,1.307,0.908,1.623,1.162,0.481,0.849,0.802,���k��,1.5,��
2018/07/22,22:00,0.919,1.306,0.909,1.623,1.161,0.483,0.851,0.801,���k��,1.5,��
2018/07/22,22:10,0.918,1.304,0.908,1.624,1.161,0.483,0.850,0.802,���k��,2.3,��
2018/07/22,22:20,0.922,1.305,0.906,1.623,1.158,0.483,0.848,0.801,���k��,2.5,��
2018/07/22,22:30,0.919,1.305,0.909,1.623,1.160,0.483,0.850,0.799,��,2.9,��
2018/07/22,22:40,0.918,1.304,0.908,1.625,1.159,0.483,0.849,0.801,���k��,2.3,��
2018/07/22,22:50,0.919,1.304,0.907,1.624,1.161,0.485,0.849,0.801,��,1.9,��
2018/07/22,23:00,0.920,1.307,0.909,1.622,1.160,0.483,0.849,0.800,���k��,2.0,��
2018/07/22,23:10,0.920,1.303,0.908,1.622,1.159,0.483,0.849,0.799,���k��,1.7,��
2018/07/22,23:20,0.918,1.306,0.908,1.623,1.159,0.483,0.849,0.800,���k��,2.0,��
2018/07/22,23:30,0.919,1.307,0.910,1.623,1.160,0.483,0.850,0.801,���k��,2.5,��
2018/07/22,23:40,0.916,1.306,0.908,1.621,1.161,0.484,0.849,0.803,���k��,3.2,��
2018/07/22,23:50,0.918,1.306,0.907,1.626,1.160,0.482,0.851,0.802,�k��,3.6,��
